カタログに戻る

COSMOS 252 DEB

運用中LEO
NORAD 19479·DEBRIS·🇷🇺 Russia

打ち上げ Nov 1, 1968 から Baikonur Cosmodrome

Loading…

次のパス (今後24時間)

TLE

最新Source: Space-Track

元期: Sep 13, 2026, 12:39 UTC

1 19479U 68097ET  26256.52735416  .00003736  00000-0  64108-3 0  9995
2 19479  62.7899 193.7796 0576637  90.0026 276.7064 13.97519744904719

AllMySatでCOSMOS 252 DEBをリアルタイム追跡

Download on the App Store